[[{"header":{"parameterUnit":"m.s-1","parameterCategory":1,"la1":30.2991,"la2":30.254,"lo1":-89.0895,"lo2":-89.0444,"dy":0.0017,"dx":0.0017,"nx":28,"ny":28,"refTime":"2025-01-25T09:00:00:Z","depth":0,"parameterNumber":2,"parameterNumberName":"U-component_of_WINDS"},"data":[0,0,0,0,0,0,0,0,0,0,0,0,0,0,0,0,0,0,0,0,0,0,0,0,0,0,0,0,0,0,0,0,0,0,0,0,0,0,0,0,0,0,0,0,0,0,0,0,0,0,0,0,0,0,0,0,0,0,-2.5945,-2.5945,0,-2.6009,-2.601,-2.6011,-2.5981,-2.598,-2.5978,-2.5977,-2.6045,-2.6048,-2.6051,0,0,0,0,0,0,0,0,0,0,0,0,0,-2.5796,-2.5799,-2.5945,-2.5945,-2.5946,-2.6009,-2.601,-2.6011,-2.5982,-2.598,-2.5978,-2.5976,-2.6044,-2.6048,-2.6052,0,0,0,0,0,0,0,0,0,0,0,0,0,-2.5861,-2.58,-2.5945,-2.5939,-2.5939,-2.6009,-2.601,-2.6011,-2.5982,-2.598,-2.5977,-2.5975,-2.6042,-2.6047,-2.6052,-2.6132,0,0,-2.6068,-2.607,0,0,0,0,0,0,0,0,-2.5857,-2.5866,-2.5939,-2.594,-2.594,-2.5985,-2.5983,-2.6052,-2.5983,-2.5966,-2.5976,-2.5974,-2.6027,-2.6033,-2.6051,-2.6135,-2.6138,-2.6068,-2.6071,-2.6073,-2.6075,0,0,0,0,0,0,0,-2.5853,-2.5863,-2.597,-2.594,-2.5941,-2.5934,-2.594,-2.5996,-2.6009,-2.5967,-2.5965,-2.5973,-2.6027,-2.6046,-2.6052,-2.6139,-2.6068,-2.6072,-2.6075,-2.6077,-2.6289,-2.6291,0,0,0,0,0,0,-2.5848,-2.586,-2.5968,-2.5972,-2.5892,-2.5938,-2.5945,-2.5973,-2.6009,-2.6012,-2.5975,-2.5971,-2.6039,-2.6046,-2.6054,-2.6148,-2.6073,-2.6078,-2.6081,-2.6286,-2.6289,-2.6292,0,0,0,0,0,0,-2.5845,-2.5858,-2.5966,-2.5915,-2.5929,-2.5943,-2.5974,-2.5975,-2.5994,-2.6015,-2.6017,-2.5992,-2.6037,-2.6047,-2.6112,-2.615,-2.608,-2.6085,-2.6283,-2.6287,-2.6291,-2.6336,0,0,0,0,0,0,-2.5841,-2.5857,-2.5888,-2.5916,-2.5931,-2.6022,-2.5977,-2.5978,-2.6003,-2.5999,-2.6031,-2.6034,-2.6036,-2.6105,-2.6117,-2.6155,-2.6089,-2.628,-2.6285,-2.629,-2.6331,-2.6341,-2.6349,0,0,0,0,0,-2.5836,-2.5899,-2.5889,-2.5903,-2.597,-2.6025,-2.6033,-2.6033,-2.6006,-2.6036,-2.6049,-2.6033,-2.6144,-2.6112,-2.6125,-2.6165,-2.6277,-2.6284,-2.6289,-2.6327,-2.6339,-2.6349,0,0,0,0,0,0,-2.5876,-2.5903,-2.5892,-2.5967,-2.5993,-2.6019,-2.6058,-2.6046,-2.6082,-2.6076,-2.6075,-2.6083,-2.6149,-2.6164,-2.6128,-2.6243,-2.6206,-2.6215,-2.6231,-2.6242,-2.6251,-2.6246,-2.6093,0,0,0,0,0,-2.5893,-2.5935,-2.5956,-2.602,-2.6034,-2.6044,-2.6068,-2.6065,-2.6093,-2.6104,-2.6122,-2.615,-2.619,-2.6217,-2.6256,-2.6333,-2.6339,-2.6368,-2.6377,-2.6384,-2.6392,-2.6431,-2.6443,-2.6312,-2.6312,-2.6311,0,0,-2.5929,-2.5949,-2.5976,-2.6028,-2.6049,-2.6092,-2.6053,-2.6101,-2.6133,-2.6112,-2.6173,-2.6187,-2.6218,-2.6288,-2.632,-2.6303,-2.6429,-2.6392,-2.6397,-2.6401,-2.6438,-2.6451,-2.6462,-2.6316,-2.6315,-2.6314,0,0,-2.6017,-2.6037,-2.6091,-2.6112,-2.6142,-2.6148,-2.6161,-2.6189,-2.6196,-2.6257,-2.6242,-2.628,-2.6351,-2.6372,-2.6393,-2.6487,-2.6473,-2.65,-2.6547,-2.6585,-2.6595,-2.6605,-2.6636,-2.6647,-2.6507,-2.6507,-2.6507,0,-2.6059,-2.6123,-2.6121,-2.6169,-2.6191,-2.6173,-2.6226,-2.6247,-2.6289,-2.6305,-2.6285,-2.6371,-2.6391,-2.6465,-2.6488,-2.6506,-2.6519,-2.6495,-2.6594,-2.6603,-2.6612,-2.6642,-2.6654,-2.651,-2.651,-2.6509,-2.6509,0,-2.6171,-2.6216,-2.6255,-2.6295,-2.6322,-2.6373,-2.6378,-2.6406,-2.6401,-2.6408,-2.647,-2.6493,-2.6534,-2.6552,-2.6549,-2.6625,-2.6613,-2.6594,-2.6557,-2.6627,-2.6655,-2.6667,-2.6514,-2.6513,-2.6512,-2.6512,0,0,-2.6287,-2.6322,-2.6337,-2.6353,-2.6385,-2.6419,-2.6469,-2.6508,-2.6531,-2.6561,-2.6601,-2.6661,-2.6642,-2.6665,-2.6663,-2.6697,-2.6767,-2.6673,-2.6674,-2.6688,-2.6851,-2.6864,-2.6877,-2.6758,-2.6761,-2.6762,-2.6847,0,-2.6375,-2.6461,-2.6459,-2.6539,-2.6578,-2.656,-2.6603,-2.6627,-2.6635,-2.667,-2.668,-2.6721,-2.6694,-2.6707,-2.674,-2.6752,-2.6799,-2.6746,-2.6795,-2.6797,-2.6786,-2.6892,-2.6907,-2.6986,-2.6858,-2.686,-2.6862,0,-2.649,-2.6521,-2.6604,-2.6627,-2.6644,-2.6682,-2.6717,-2.6751,-2.6777,-2.6781,-2.6805,-2.6798,-2.6847,-2.6809,-2.6877,-2.684,-2.686,-2.6869,-2.6872,-2.6875,-2.6832,-2.6897,-2.7012,-2.7023,-2.6879,-2.6878,-2.6877,0,-2.6564,-2.6626,-2.6683,-2.6698,-2.6727,-2.6754,-2.6768,-2.6791,-2.6814,-2.6845,-2.686,-2.6897,-2.6916,-2.6945,-2.6947,-2.6919,-2.7014,-2.6977,-2.7017,-2.7017,-2.7037,-2.7035,-2.7155,-2.7053,-2.7053,-2.7053,-2.7052,0,-2.6662,-2.6713,-2.6716,-2.6751,-2.6807,-2.6804,-2.686,-2.6871,-2.6891,-2.6928,-2.6915,-2.695,-2.6951,-2.6986,-2.6988,-2.7042,-2.7052,-2.7055,-2.7055,-2.7056,-2.7055,-2.7068,-2.7061,-2.7056,-2.7055,-2.7055,-2.7054,0,-2.6753,-2.6757,-2.6817,-2.6839,-2.6846,-2.6886,-2.6904,-2.6937,-2.6943,-2.6989,-2.7,-2.701,-2.7051,-2.7055,-2.7104,-2.7105,-2.7169,-2.7164,-2.716,-2.7158,-2.7197,-2.7193,-2.7328,-2.7344,-2.7234,-2.7235,-2.7236,0,-2.6814,-2.6852,-2.6877,-2.69,-2.6914,-2.6952,-2.6974,-2.6973,-2.6997,-2.7028,-2.7057,-2.7096,-2.7127,-2.7192,-2.7204,-2.724,-2.7234,-2.7279,-2.7239,-2.7238,-2.7232,-2.7229,-2.7232,-2.7286,-2.7287,-2.7288,-2.7289,0,-2.6922,-2.6922,-2.6955,-2.6988,-2.7015,-2.7041,-2.7066,-2.7086,-2.7087,-2.7115,-2.7155,-2.7179,-2.7226,-2.7264,-2.7299,-2.7313,-2.7301,-2.7301,-2.7312,-2.7312,-2.7307,-2.7308,-2.7178,-2.7298,-2.7297,-2.7297,-2.7296,-2.7296,-2.6999,-2.7031,-2.7052,-2.7089,-2.7107,-2.713,-2.7161,-2.717,-2.7203,-2.7241,-2.7238,-2.7282,-2.7305,-2.735,-2.7366,-2.74,-2.7386,-2.7402,-2.7406,-2.7409,-2.7412,-2.7303,-2.7407,-2.7407,-2.7407,-2.7407,-2.7406,0,-2.7104,-2.7116,-2.715,-2.7184,-2.7212,-2.7197,-2.7223,-2.7248,-2.7286,-2.7309,-2.7338,-2.7383,-2.742,-2.7434,-2.7469,-2.7493,-2.7488,-2.7502,-2.75,-2.7503,-2.7424,-2.741,-2.7505,-2.7505,-2.7505,-2.7505,-2.7505,-2.7505,-2.7162,-2.7214,-2.7216,-2.7277,-2.7289,-2.7331,-2.7347,-2.7367,-2.7385,-2.7435,-2.7464,-2.7473,-2.7491,-2.7527,-2.756,-2.7563,-2.7576,-2.7591,-2.7592,-2.7519,-2.7508,-2.7499,-2.7486,-2.7595,-2.7595,-2.7667,-2.7668,-2.7668]},{"header":{"parameterUnit":"m.s-1","parameterCategory":1,"la1":30.2991,"la2":30.254,"lo1":-89.0895,"lo2":-89.0444,"dy":0.0017,"dx":0.0017,"nx":28,"ny":28,"refTime":"2025-01-25T09:00:00:Z","depth":0,"parameterNumber":3,"parameterNumberName":"V-component_of_WINDS"},"data":[0,0,0,0,0,0,0,0,0,0,0,0,0,0,0,0,0,0,0,0,0,0,0,0,0,0,0,0,0,0,0,0,0,0,0,0,0,0,0,0,0,0,0,0,0,0,0,0,0,0,0,0,0,0,0,0,0,0,0.6769,0.6771,0,0.6969,0.6971,0.6973,0.7011,0.7009,0.7008,0.7006,0.7214,0.7221,0.7228,0,0,0,0,0,0,0,0,0,0,0,0,0,0.6426,0.6432,0.6769,0.6771,0.6774,0.6968,0.6971,0.6974,0.7011,0.7009,0.7007,0.7005,0.7212,0.722,0.7229,0,0,0,0,0,0,0,0,0,0,0,0,0,0.6595,0.6434,0.6769,0.6816,0.6822,0.6968,0.6971,0.6974,0.7012,0.7009,0.7007,0.7004,0.7209,0.722,0.723,0.7344,0,0,0.7262,0.7267,0,0,0,0,0,0,0,0,0.6585,0.6608,0.6807,0.6813,0.682,0.6962,0.6926,0.7098,0.7012,0.694,0.7006,0.7003,0.7133,0.7149,0.7192,0.7353,0.7362,0.7263,0.727,0.7274,0.7277,0,0,0,0,0,0,0,0.6574,0.6599,0.6848,0.6809,0.6818,0.6829,0.685,0.6959,0.7048,0.6946,0.6949,0.6972,0.7136,0.7182,0.7198,0.7365,0.7263,0.7272,0.7279,0.7283,0.7633,0.7635,0,0,0,0,0,0,0.6553,0.6589,0.6842,0.6854,0.6694,0.6837,0.6861,0.6919,0.7046,0.7063,0.6974,0.6973,0.7165,0.7185,0.7205,0.7349,0.7274,0.7284,0.729,0.763,0.7633,0.7637,0,0,0,0,0,0,0.6545,0.6575,0.6834,0.6723,0.6756,0.6846,0.6911,0.6924,0.697,0.7067,0.7084,0.7004,0.7164,0.719,0.7309,0.7357,0.7289,0.7298,0.7626,0.7631,0.7635,0.7636,0,0,0,0,0,0,0.6535,0.6572,0.6615,0.6723,0.6762,0.6933,0.6913,0.693,0.6988,0.6989,0.71,0.7117,0.7164,0.7293,0.732,0.737,0.7307,0.7623,0.7628,0.7634,0.7632,0.764,0.7646,0,0,0,0,0,0.6523,0.6607,0.6617,0.6647,0.6817,0.6936,0.6958,0.701,0.6991,0.7037,0.7099,0.7113,0.7346,0.7305,0.7335,0.7389,0.762,0.7627,0.7633,0.7629,0.7638,0.7646,0,0,0,0,0,0,0.6504,0.6622,0.6634,0.6756,0.6835,0.6942,0.7,0.7018,0.7105,0.7103,0.7164,0.7189,0.7306,0.7359,0.7311,0.7507,0.7482,0.7495,0.7469,0.7478,0.7485,0.7472,0.7315,0,0,0,0,0,0.6513,0.6598,0.6698,0.6796,0.6835,0.691,0.6964,0.6997,0.7082,0.7117,0.7188,0.7271,0.7364,0.7424,0.7514,0.7639,0.7666,0.7691,0.7698,0.7704,0.7715,0.7789,0.7802,0.7658,0.7658,0.7658,0,0,0.6534,0.661,0.666,0.6794,0.6859,0.6948,0.6938,0.7032,0.7099,0.7131,0.7249,0.7304,0.7401,0.7525,0.7582,0.7573,0.776,0.7712,0.7716,0.7725,0.7797,0.781,0.7822,0.7663,0.7662,0.7661,0,0,0.6619,0.6683,0.6773,0.6839,0.6938,0.6988,0.7009,0.7113,0.7151,0.7269,0.7296,0.7377,0.7534,0.7604,0.7659,0.7771,0.7788,0.7798,0.7837,0.7908,0.7919,0.793,0.7973,0.7987,0.7809,0.7809,0.7809,0,0.6634,0.6767,0.6818,0.6911,0.697,0.7002,0.7095,0.7156,0.728,0.7321,0.7308,0.7507,0.7575,0.7716,0.7744,0.7786,0.7815,0.7788,0.7913,0.7924,0.7935,0.7977,0.7992,0.781,0.781,0.781,0.781,0,0.6782,0.6874,0.6935,0.7053,0.7119,0.7211,0.7278,0.7339,0.7366,0.7418,0.7539,0.7621,0.773,0.7765,0.7793,0.7912,0.7903,0.79,0.7877,0.7948,0.7989,0.8005,0.7811,0.7811,0.781,0.781,0,0,0.6862,0.7006,0.7029,0.7084,0.7195,0.7268,0.7363,0.7468,0.752,0.7604,0.7688,0.782,0.7819,0.7882,0.7917,0.7979,0.8066,0.797,0.7973,0.7988,0.8206,0.821,0.8227,0.8077,0.808,0.8083,0.8199,0,0.6963,0.7132,0.718,0.7324,0.7411,0.7442,0.7525,0.7604,0.7655,0.7738,0.7794,0.7888,0.7878,0.7917,0.7979,0.8042,0.8112,0.8034,0.8158,0.8162,0.8136,0.8248,0.8252,0.8358,0.8215,0.8218,0.822,0,0.7103,0.719,0.7341,0.7443,0.7482,0.7555,0.7657,0.7734,0.7825,0.7858,0.7929,0.7959,0.8061,0.803,0.8173,0.812,0.8173,0.8212,0.8217,0.8234,0.8197,0.8271,0.8393,0.841,0.8245,0.8243,0.8241,0,0.7151,0.7305,0.7416,0.7462,0.7582,0.7634,0.7687,0.7775,0.7836,0.7924,0.7965,0.8065,0.812,0.8197,0.8255,0.8226,0.8395,0.8367,0.8428,0.8427,0.8465,0.8462,0.8601,0.8493,0.8493,0.8492,0.8492,0,0.726,0.7353,0.7439,0.7508,0.7614,0.7669,0.7772,0.7827,0.7905,0.7987,0.8019,0.8096,0.8165,0.8251,0.8296,0.8411,0.8434,0.8466,0.8478,0.8465,0.8462,0.8504,0.8499,0.8497,0.8496,0.8495,0.8494,0,0.7332,0.7393,0.7518,0.7622,0.765,0.7723,0.7814,0.7883,0.7934,0.8038,0.8065,0.8147,0.825,0.8314,0.8445,0.8476,0.8603,0.861,0.8572,0.8578,0.8637,0.8632,0.881,0.8837,0.8707,0.8709,0.871,0,0.74,0.7472,0.7584,0.764,0.7694,0.7784,0.7846,0.7903,0.7967,0.8076,0.8133,0.8238,0.8326,0.849,0.8562,0.8663,0.8675,0.8731,0.8691,0.8677,0.8681,0.8677,0.8687,0.8738,0.874,0.874,0.8741,0,0.7515,0.7542,0.7629,0.7728,0.7801,0.7882,0.7962,0.8007,0.8079,0.8149,0.8255,0.8322,0.8456,0.8562,0.8669,0.8726,0.8747,0.8752,0.8773,0.8763,0.874,0.8757,0.8594,0.8749,0.8748,0.8748,0.8747,0.8747,0.759,0.7656,0.7746,0.7843,0.7909,0.7984,0.8055,0.8115,0.8204,0.8317,0.8345,0.8457,0.8547,0.8694,0.8752,0.8842,0.8834,0.8862,0.887,0.8877,0.8881,0.8722,0.8861,0.8861,0.8861,0.8861,0.8861,0,0.771,0.7768,0.7857,0.7969,0.8046,0.8056,0.8146,0.8211,0.8308,0.8389,0.8475,0.8597,0.87,0.878,0.8885,0.8942,0.8954,0.8968,0.8966,0.898,0.888,0.8853,0.8956,0.8956,0.8956,0.8956,0.8956,0.8956,0.7781,0.7895,0.7933,0.8081,0.8139,0.8248,0.8299,0.8369,0.8435,0.857,0.8655,0.8706,0.8788,0.89,0.8995,0.9016,0.9055,0.9068,0.9091,0.8997,0.8986,0.8977,0.8953,0.9075,0.9075,0.9185,0.9186,0.9186]}]]